www.pogodaiklimat.ru
Время
(UTC), дата
22:53 29.12
23:53 29.12
00:53 29.12
01:53 29.12
02:53 29.12
03:53 29.12
04:53 29.12
05:53 30.12
06:53 30.12
07:53 30.12
08:53 30.12
09:53 30.12
10:53 30.12
11:53 30.12
12:53 30.12
13:53 30.12
14:53 30.12
15:53 30.12
16:53 30.12
17:53 30.12
18:53 30.12
19:53 30.12
20:53 30.12
21:53 30.12
22:53 30.12
23:53 30.12
00:53 30.12
01:53 30.12
02:53 30.12
03:53 30.12
04:53 30.12
05:53 31.12
06:53 31.12
07:53 31.12
08:53 31.12
09:53 31.12
10:53 31.12
11:53 31.12
12:53 31.12
13:53 31.12
14:53 31.12
15:53 31.12
16:53 31.12
17:53 31.12
18:53 31.12
19:53 31.12
20:53 31.12
21:53 31.12
Ветер
(напр.,м/с)
Видим. Явления Облачность Т
(С)
Тd
(С)
f
(%)
Тe
(С)
Тes
(С)
Комфортность P
(гПа)
Po
(гПа)
Тmin
(С)
Tmax
(С)
R
(мм)
R24
(мм)
S
(см)
З 7 16 км 10/10 1380 м +7.8 +2.2 68 +3 +3 1009.7 992.8 +7.2 +10.0
З 7 16 км 10/10 1500 м +7.2 +1.1 65 +3 +3 1010.4 993.5
З 5 16 км 10/10 1650 м +7.2 +1.1 65 +3 +3 1011.1 994.1
З 4 16 км ясно +5.0 +1.1 76 +1 +1 1011.5 994.5
З 7 16 км ясно +5.6 +0.6 70 0 0 1011.8 994.8
З 7 16 км ясно +5.0 0.0 70 -1 -1 1012.3 995.1
З 6 16 км 2/2 1320 м +5.0 0.0 70 -0 -0 1013.1 996.1 +4.4 +7.8
З 6 16 км ясно +3.9 0.0 76 -2 -2 1012.6 995.5
З 5 16 км ясно +3.3 0.0 79 -2 -2 1013.1 995.8
З 6 16 км ясно +3.9 -0.6 72 -2 -2 1013.3 996.1
З 5 16 км ясно +2.8 -0.6 78 -3 -3 1013.5 996.5
З 5 16 км ясно +2.8 -0.6 78 -3 -3 1014.1 996.8
З 4 16 км ясно +2.2 -1.1 79 -3 -3 1014.5 997.1 +2.2 +5.0
ЮЗ 4 16 км ясно +1.7 -0.6 85 -4 -4 1015.4 998.1
З 5 16 км ясно +2.2 -1.1 79 -4 -4 1015.9 998.5
З 4 16 км ясно +3.9 0.0 76 -1 -1 1016.8 999.5
З 9
{12}
16 км ясно +5.6 -1.1 62 -0 -0 1017.8 1000.5
З 8 16 км ясно +6.7 -1.1 57 +2 +2 1017.9 1000.8
З 8 16 км ясно +7.8 -0.6 55 +3 +4 1017.1 999.8 +1.7 +7.8
З 8
{14}
16 км ясно +8.9 -1.1 49 +5 +5 1016.4 999.1
З 9 16 км ясно +10.0 -1.1 46 +6 +6 1016.3 999.1
З 9 16 км ясно +10.0 -1.1 46 +6 +6 1016.4 999.1
З 11
{14}
16 км ясно +10.0 -2.2 42 +6 +6 1016.5 999.5
З 7 16 км ясно +8.9 -2.8 44 +5 +5 1016.9 999.8
З 6 16 км ясно +7.2 -2.8 49 +3 +3 1017.7 1000.5 +7.2 +10.0
З 5 16 км ясно +6.1 -2.2 55 +2 +2 1018.6 1001.1
З 4 16 км ясно +5.0 -2.2 60 +1 +1 1019.1 1001.8
З 4 16 км ясно +3.3 -2.2 67 -2 -2 1019.5 1002.1
З 4 16 км ясно +3.3 -2.2 67 -2 -2 1020.0 1002.5
З 5 16 км ясно +3.3 -2.2 67 -2 -2 1020.2 1002.8
З 4 16 км ясно +2.8 -2.8 67 -2 -2 1020.1 1002.8 +2.8 +7.2
З 4 16 км ясно +1.1 -2.8 75 -4 -4 1020.2 1002.8
З 4 16 км ясно +1.1 -2.8 75 -5 -5 1020.7 1003.5
З 4 16 км ясно +1.1 -2.8 75 -5 -5 1021.2 1003.8
З 4 16 км ясно +1.1 -2.8 75 -4 -4 1021.5 1004.1
ЮЗ 3 16 км ясно -0.6 -3.3 82 -5 -5 1021.5 1004.1
ЮЗ 3 16 км ясно -1.1 -3.3 85 -6 -6 1021.8 1004.5 -1.1 +2.8
ЮЗ 3 16 км ясно -1.7 -3.9 85 -7 -7 1022.7 1005.1
З 3 16 км ясно -1.1 -3.3 85 -6 -6 1022.9 1005.5
З 4 16 км ясно +2.2 -2.8 69 -3 -3 1023.2 1005.8
З 4 16 км ясно +3.9 -2.8 62 -1 0 1023.8 1006.5
З 5 16 км ясно +6.1 -2.2 55 +2 +3 1023.8 1006.5
ЮЗ 6 16 км ясно +8.3 -2.2 48 +4 +6 1022.9 1005.5 -2.2 +8.3
З 6 16 км ясно +9.4 -5.0 36 +6 +8 1021.7 1004.5
З 6 16 км ясно +11.1 -5.0 32 +8 +10 1020.4 1003.1
З 6 16 км ясно +11.7 -6.1 28 +9 +11 1019.9 1002.8
З 6 16 км ясно +11.1 -5.6 31 +8 +9 1019.9 1002.8
З 4 16 км ясно +9.4 -4.4 37 +7 +7 1019.9 1002.5
Местоположение метеостанции Fort Smith Regional Airport: широта 35.3336 долгота -94.3650 высота над уровнем моря 142 м.
В архиве по умолчанию представлена погода в Форт Смит за последние 1-2 суток. Обновление информации о фактической погоде в базе происходит ежечасно! Архивные данные за месяц целиком и за предыдущие месяцы Вы можете получить, выбрав интересующий диапазон дат из раскрывающегося списка и нажав кнопку "Ввод!".
Внимание! Архив погоды МЕТАР в базе сайта по станциям, не включенным в климатический монитор, хранится не более 60 дней. Нет смысла пытаться выбрать более раннюю дату.
*Определитесь, кто Вы:
Внимание! Время в таблицах - всемирное. Для получения местного времени необходимо прибавить поправку, которая равна ч.
Смотрите также архив погоды в соседних городах и на ближайших метеорологических станциях:
Партнеры нашего сайта:      
Пояснения к столбцам:
  • Ветер - указаны скорость ветра в м/с - средняя за 10 мин, порывы в срок и между сроками (в фигурных скобках) и направление, откуда дует ветер: С - северный,
  • СВ - северо-восточный, В - восточный, ЮВ - юго-восточный, Ю - южный, ЮЗ - юго-западный, З - западный, СЗ - северо-западный.
  • Видимость - горизонтальная дальность видимости в метрах или километрах. При видимости от 1 до 10 км при отсутствии осадков обычно наблюдается дымка, при ухудшении видимости до 1 км и менее - туман. В сухую погоду видимость может ухудшаться дымом, пылью или мглою.
  • Явления - указаны атмосферные явления, наблюдавшиеся в срок или в последний час перед сроком; фигурными скобками обозначены явления, наблюдавшиеся между сроками (за 1-3 часа до срока); квадратными скобками обозначены град или гололедные отложения с указанием их диаметра в мм.
  • Облачность - указаны через наклонную черту общая и нижняя облачность в баллах и высота нижней границы облаков в метрах; квадратными скобками обозначены формы облаков: Ci - перистые, Cs - перисто-слоистые, Cc - перисто-кучевые, Ac - высококучевые, As - высокослоистые, Sc - слоисто-кучевые, Ns - слоисто-дождевые, Cu - кучевые, Cb - кучево-дождевые. Подробнее классификацию облаков см. в Атласе облаков (PDF).
  • T - Температура воздуха - температура, измеренная на высоте 2 м над землей.
  • Td - Температура точки росы - температура, при понижении до которой содержащийся в воздухе водяной пар достигнет насыщения.
  • f - Относительная влажность воздуха - влажноcть воздуха, измеренная на высоте 2 м над землей.
  • Te - Эффективная температура - температура, которую ощущает одетый по сезону человек в тени. Характеристика душности погоды. При расчете учитывается влияние влажности воздуха и скорости ветра на теплоощущения человека.
  • Tes - Эффективная температура на солнце - температура, которую ощущает человек, с поправкой на солнечный нагрев. Характеристика знойности погоды. Зависит от высоты солнца над горизонтом, облачности и скорости ветра. Ночью, в пасмурную погоду, а также при ветре 12 м/с и более поправка равна нулю.
  • P - Атмосферное давление - приведенное к уровню моря атмосферное давление.
  • Po - Атмосферное давление - измеренное на уровне метеостанции атмосферное давление.
  • Tmin - Минимальная температура - минимум температуры воздуха на высоте 2 м над землей.
  • Tmax - Максимальная температура - максимум температуры воздуха на высоте 2 м над землей.
  • R - Количество осадков - Количество выпавших осадков за период времени, мм. При наведении курсора мыши на число - период времени, за который выпало указанное количество осадков.
  • R24 - Количество осадков - Количество выпавших осадков за 24 часа, мм.
  • S - Снежный покров - Высота снежного покрова, см. При наведении курсора мыши на число - состояние снежного покрова и степень покрытия местности в баллах.